TimeCDT,TemperatureF,Dew PointF,Humidity,Sea Level PressureIn,VisibilityMPH,Wind Direction,Wind SpeedMPH,Gust SpeedMPH,PrecipitationIn,Events,Conditions,WindDirDegrees,DateUTC
12:53 AM,30.0,21.9,72,30.27,10.0,South,5.8,-,N/A,,Clear,190,2013-04-04 05:53:00
1:53 AM,30.0,21.0,69,30.25,10.0,SW,5.8,-,N/A,,Clear,220,2013-04-04 06:53:00
2:53 AM,32.0,19.9,61,30.22,10.0,SSW,9.2,-,N/A,,Clear,210,2013-04-04 07:53:00
3:53 AM,30.0,19.9,66,30.21,10.0,South,9.2,-,N/A,,Clear,190,2013-04-04 08:53:00
4:53 AM,30.0,19.0,64,30.22,10.0,SSW,4.6,-,N/A,,Clear,210,2013-04-04 09:53:00
5:53 AM,28.9,19.0,67,30.21,10.0,SSW,4.6,-,N/A,,Clear,200,2013-04-04 10:53:00
6:53 AM,27.0,19.9,75,30.20,10.0,SSW,6.9,-,N/A,,Clear,200,2013-04-04 11:53:00
7:53 AM,33.1,21.9,64,30.20,10.0,SSW,6.9,-,N/A,,Clear,200,2013-04-04 12:53:00
8:53 AM,37.0,23.0,57,30.17,10.0,SSW,11.5,-,N/A,,Clear,210,2013-04-04 13:53:00
9:53 AM,43.0,24.1,47,30.15,10.0,SW,12.7,-,N/A,,Clear,230,2013-04-04 14:53:00
10:53 AM,46.0,25.0,44,30.14,10.0,WSW,13.8,-,N/A,,Clear,250,2013-04-04 15:53:00
11:53 AM,50.0,26.1,39,30.13,10.0,West,15.0,-,N/A,,Clear,270,2013-04-04 16:53:00
12:53 PM,53.1,28.9,40,30.09,10.0,WSW,13.8,23.0,N/A,,Clear,250,2013-04-04 17:53:00
1:53 PM,55.4,30.2,38,30.03,10.0,West,15.0,-,N/A,,Clear,260,2013-04-04 18:53:00
2:53 PM,57.0,34.0,42,30.03,10.0,West,15.0,20.7,N/A,,Clear,280,2013-04-04 19:53:00
3:53 PM,55.9,35.1,45,30.02,10.0,West,17.3,-,N/A,,Mostly Cloudy,280,2013-04-04 20:53:00
4:53 PM,57.0,36.0,45,30.02,10.0,WNW,15.0,-,N/A,,Overcast,290,2013-04-04 21:53:00
5:53 PM,55.0,37.9,53,30.02,10.0,NW,17.3,-,N/A,,Clear,310,2013-04-04 22:53:00
6:53 PM,51.1,37.0,59,30.03,10.0,WNW,9.2,-,N/A,,Clear,300,2013-04-04 23:53:00
7:53 PM,46.9,34.0,61,30.04,10.0,NNW,16.1,-,N/A,,Clear,330,2013-04-05 00:53:00
8:53 PM,44.1,34.0,68,30.05,10.0,NNW,10.4,-,N/A,,Clear,330,2013-04-05 01:53:00
9:53 PM,42.1,33.1,70,30.06,10.0,NNW,13.8,-,N/A,,Clear,340,2013-04-05 02:53:00
10:53 PM,41.0,32.0,70,30.07,10.0,North,12.7,-,N/A,,Clear,350,2013-04-05 03:53:00
11:53 PM,39.0,30.0,70,30.09,10.0,North,13.8,-,N/A,,Clear,360,2013-04-05 04:53:00